Regional Weather Roundup
Issued by NWS Cleveland, OH

Home | Current Version | Previous Version | Graphics & Text | Print | Product List | Glossary On
Versions: 1 2 3 4 5 6 7 8 9 10 11 12 13 14 15 16 17 18 19 20 21 22 23 24 25 26 27 28 29 30 31 32 33 34 35 36 37 38 39 40 41 42 43 44 45 46 47 48 49 50
000
ASUS41 KCLE 260010
RWRCLE
OHIO REGIONAL WEATHER ROUNDUP
NATIONAL WEATHER SERVICE WILMINGTON, OH
800 PM EDT WED MAY 25 2016

NOTE: "FAIR" INDICATES FEW OR NO CLOUDS BELOW 12,000 FEET WITH NO
SIGNIFICANT WEATHER AND/OR OBSTRUCTIONS TO VISIBILITY.

OHZ001>008-015>018-024>027-034-035-043-044-260100-
   NORTHWEST OHIO

CITY           SKY/WX    TMP DP  RH WIND       PRES   REMARKS
DEFIANCE       FAIR      82  58  43 S8        29.95F
FINDLAY        FAIR      80  57  45 S13       29.98F
TOLEDO EXPRESS FAIR      78  58  49 SE5       29.97F
TOLEDO EXEC    FAIR      79  57  46 SE10      29.99F
LIMA           FAIR      79  59  50 S10G22    29.99F
$$

OHZ009>014-019>023-028>033-038-089-260100-
   NORTHEAST OHIO

CITY           SKY/WX    TMP DP  RH WIND       PRES   REMARKS
CLE-HOPKINS    MOCLDY    79  56  45 S9        30.07F
CLE-LAKEFRONT  MOCLDY    80  55  42 S13       30.03F
CUY CO. ARPT   MOCLDY    81  57  44 SW12      30.06F
LORAIN-ELYRIA  FAIR      76  55  48 S9        30.05F
ASHTABULA      FAIR      80  53  39 W7        30.08R
AKRON-CANTON   MOCLDY    75  55  49 S8        30.10F
WOOSTER        FAIR      74  57  55 S9        30.08F
MANSFIELD      MOCLDY    76  57  51 SE14      30.06F
YOUNGSTOWN     MOCLDY    77  55  46 S5        30.09F
$$

OHZ042-051>053-060>062-070>072-077>081-260100-
  SOUTHWEST OHIO

CITY           SKY/WX    TMP DP  RH WIND       PRES   REMARKS
CINC-COVINGTON MOCLDY    78  63  59 S9        30.05R
CINC-LUNKEN    FAIR      77  64  64 S12       30.03S
HAMILTON       FAIR      80  62  54 SW8       30.03S
DAYTON         MOCLDY    78  61  55 S10       30.04R
WRIGHT-PAT AFB MOCLDY    78  63  59 S10       30.02F
DAYTON GENERAL FAIR      78  61  55 S10       30.03S
WILMINGTON     FAIR      76  63  64 S14       30.05S
$$

OHZ036-037-039>041-045>050-054>059-063>069-073>076-082>088-260100-
  CENTRAL AND SOUTHEAST OHIO

CITY           SKY/WX    TMP DP  RH WIND       PRES   REMARKS
COLUMBUS       MOCLDY    77  58  51 S9        30.05F
OSU AIRPORT    FAIR      77  58  51 SE10      30.05F
BOLTON FIELD   FAIR      76  61  59 S8        30.06F
RICKENBACK AFB FAIR      76  60  57 SE10      30.05F
NEWARK         FAIR      77  58  51 SE6       30.07F
MARION         FAIR      77  57  50 S13       30.03F
LANCASTER      FAIR      74  59  59 SE7       30.08F
ZANESVILLE     CLOUDY    77  61  57 SE7       30.09F
NEW PHILLY     CLOUDY    78  55  44 S5        30.10F
$$




USA.gov is the U.S. government's official web portal to all federal, state and local government web resources and services.